Weather History for Yuma MCAS, AZ

Change the Weather History Date:

Friday, March 9, 2012

  Actual Average Record
Temperature  
Mean Temperature 68 °F 66 °F  
Max Temperature 82 °F 79 °F 96 °F (1916)
Min Temperature 53 °F 54 °F 35 °F (1964)
Degree Days  
Heating Degree Days 0 2  
Month to date heating degree days 31 19  
Since 1 July heating degree days 660 642  
Cooling Degree Days 3 3  
Month to date cooling degree days 14 23  
Year to date cooling degree days 27 59  
Growing Degree Days 17 (Base 50)    
Moisture  
Dew Point 22 °F    
Average Humidity 23    
Maximum Humidity 36    
Minimum Humidity 9    
Precipitation  
Precipitation 0.00 in 0.01 in 0.70 in (1912)
Month to date precipitation 0.00 0.11  
Year to date precipitation 0.03 0.87  
Sea Level Pressure  
Sea Level Pressure 30.14 in    
Wind  
Wind Speed 7 mph (North)    
Max Wind Speed 15 mph    
Max Gust Speed 18 mph    
Visibility 10 miles    
Events      
T = Trace of Precipitation, MM = Missing Value Source: NWS Daily Summary

Daily Weather History Graph

Daily Weather History Graph

Search for Another Location

Airport:

Trip Planner

Search our weather history database for the weather conditions in past years. The results will help you decide how hot, cold, wet, or windy it might be!

Date:

Astronomy

Mar. 09, 2012 Rise Set
Actual Time 6:55 AM MST 6:42 PM MST
Civil Twilight 6:31 AM MST 7:06 PM MST
Nautical Twilight 6:02 AM MST 7:35 PM MST
Astronomical Twilight 5:33 AM MST 8:04 PM MST
Moon 8:36 PM MST (3/9) 7:25 AM MST (3/9)
Length of Visible Light 12h 35m
Length of Day
11h 46m
Full, 97% of the Moon is Illuminated
Mar 9
Full
Mar 14
Last Quarter
Mar 22
New
Mar 30
First Quarter
Apr 6
Full

Hourly Weather History & Observations

Time (MST) Temp. Dew Point Humidity Pressure Visibility Wind Dir Wind Speed Gust Speed Precip Events Conditions
12:55 AM 57.0 °F 21.9 °F 26% 30.23 in 10.0 mi NW 4.6 mph - N/A   Clear
1:55 AM 53.1 °F 24.1 °F 32% 30.24 in 10.0 mi North 5.8 mph - N/A   Clear
2:55 AM 60.1 °F 12.0 °F 15% 30.22 in 10.0 mi Calm Calm - N/A   Clear
3:55 AM 57.9 °F 12.9 °F 17% 30.21 in 10.0 mi North 4.6 mph - N/A   Clear
4:55 AM 54.0 °F 17.1 °F 23% 30.21 in 10.0 mi NE 3.5 mph - N/A   Clear
5:55 AM 55.9 °F 16.0 °F 21% 30.22 in 10.0 mi NNE 9.2 mph - N/A   Clear
6:55 AM 55.0 °F 17.1 °F 23% 30.23 in 10.0 mi NE 9.2 mph - N/A   Clear
7:55 AM 57.9 °F 17.1 °F 20% 30.25 in 10.0 mi NE 5.8 mph - N/A   Clear
8:55 AM 63.0 °F 18.0 °F 18% 30.25 in 10.0 mi NE 8.1 mph - N/A   Clear
9:55 AM 69.1 °F 21.9 °F 17% 30.25 in 10.0 mi NE 12.7 mph - N/A   Partly Cloudy
10:55 AM 72.0 °F 19.9 °F 14% 30.23 in 10.0 mi ENE 8.1 mph - N/A   Partly Cloudy
11:55 AM 73.9 °F 21.0 °F 14% 30.21 in 10.0 mi Variable 6.9 mph - N/A   Partly Cloudy
12:55 PM 78.1 °F 21.0 °F 12% 30.17 in 10.0 mi North 9.2 mph - N/A   Clear
1:55 PM 79.0 °F 19.0 °F 11% 30.13 in 10.0 mi Variable 6.9 mph - N/A   Partly Cloudy
2:55 PM 81.0 °F 19.0 °F 10% 30.09 in 10.0 mi North 10.4 mph - N/A   Partly Cloudy
3:55 PM 81.0 °F 18.0 °F 10% 30.06 in 10.0 mi NNW 6.9 mph - N/A   Partly Cloudy
4:00 PM - - N/A% - - North - - N/A   Unknown
4:55 PM 81.0 °F 19.0 °F 10% 30.04 in 10.0 mi NW 6.9 mph - N/A   Clear
5:55 PM 79.0 °F 16.0 °F 9% 30.02 in 10.0 mi NNW 10.4 mph - N/A   Clear
6:55 PM 75.0 °F 18.0 °F 12% 30.02 in 10.0 mi NW 4.6 mph - N/A   Clear
7:55 PM 66.9 °F 35.1 °F 31% 30.02 in 10.0 mi WSW 8.1 mph - N/A   Clear
8:55 PM 66.0 °F 34.0 °F 30% 30.01 in 10.0 mi WSW 5.8 mph - N/A   Clear
9:55 PM 63.0 °F 34.0 °F 34% 30.01 in 10.0 mi West 3.5 mph - N/A   Clear
10:55 PM 61.0 °F 33.1 °F 35% 30.01 in 10.0 mi Calm Calm - N/A   Clear
11:55 PM 60.1 °F 33.1 °F 36% 30.01 in 10.0 mi ENE 4.6 mph - N/A   Clear